Regional Weather Roundup
Issued by NWS

Home | Current Version | Previous Version | Text Only | Print | Product List | Glossary Off
Versions: 1 2 3 4 5 6 7 8 9 10 11 12 13 14 15 16 17 18 19 20 21 22 23 24 25 26 27 28 29 30 31 32 33 34 35 36 37 38 39 40 41 42 43 44 45 46 47 48 49 50

000
ASUS43 KDTX 200210
RWRMI
MICHIGAN HOURLY REGIONAL WEATHER ROUNDUP
NATIONAL WEATHER SERVICE DETROIT/PONTIAC MI
900 PM EST SUN FEB 19 2017

NOTE: "FAIR" INDICATES FEW OR NO CLOUDS BELOW 12,000 FEET WITH NO
SIGNIFICANT WEATHER AND/OR OBSTRUCTION TO VISIBILITY.

MIZ047>049-052>055-059>063-066>070-074>076-081>083-200300-
SOUTHEAST LOWER MICHIGAN

CITY           SKY/WX    TMP DP  RH WIND       PRES   REMARKS
ADRIAN         CLOUDY    44  33  65 NW3       30.12R
ALMA           PTCLDY    38  33  80 CALM      30.12R
ANN ARBOR      CLOUDY    38  30  73 CALM      30.11R
BAD AXE        CLOUDY    32  26  78 CALM      30.15R
CARO           CLEAR     38  32  78 NE7       30.13R WCI  33
DETROIT CITY   CLEAR     42  32  67 NE6       30.13R
DETROIT        PTCLDY    52  30  43 NE5       30.12R
FLINT          CLEAR     37  32  82 CALM      30.12R
GROSSE ILE     CLEAR     47  32  56 NE9       30.11R
HILLSDALE      CLEAR     45  30  57 CALM      30.10R
HOWELL         CLOUDY    43  31  63 CALM      30.11R

CITY           SKY/WX    TMP DP  RH WIND       PRES   REMARKS
JACKSON        CLEAR     44  31  60 CALM      30.12R
LAMBERTVILLE   CLEAR     44  35  70 CALM      30.11R
LANSING        PTCLDY    42  29  59 CALM      30.12R
LAPEER         FAIR      40  32  73 E7        30.13R
MASON          CLEAR     44  33  65 CALM      30.12R
MONROE         PTCLDY    44  35  70 CALM      30.10R
MT. CLEMENS    PTCLDY    39  31  75 NE7       30.12R WCI  34
PONTIAC        PTCLDY    42  31  64 CALM      30.10R
PORT HOPE        N/A     34  29  82 CALM      30.13R
PORT HURON     CLEAR     34  32  93 CALM      30.15R
TRI CITIES     CLEAR     41  32  70 NE12      30.13R
MIDLAND        FAIR      35  28  76 CALM      30.13R
TROY           CLEAR     47  31  52 E8        30.14R
SAGINAW HB     CLEAR     39  32  75 NE3       30.12R
$$
MIZ043>046-050>051-056>058-064>065-071>073-077>080-200300-
SOUTHWEST LOWER MICHIGAN

CITY           SKY/WX    TMP DP  RH WIND       PRES   REMARKS
BATTLE CREEK   CLEAR     49  27  42 CALM      30.11S
BENTON HARBOR  CLOUDY    40  29  64 E3        30.11R
BIG RAPIDS     CLOUDY    37  27  66 CALM      30.12R
COLDWATER      PTCLDY    44  30  59 CALM      30.11S
FREMONT        FAIR      42  28  59 CALM      30.11R
HOLLAND        CLOUDY    40  32  73 CALM      30.12R
GRAND RAPIDS   CLOUDY    45  29  53 W5        30.11S
IONIA          FAIR      46  29  53 W3        30.11R
KALAMAZOO      CLEAR     46  23  40 CALM      30.12R
LUDINGTON      CLOUDY    34  30  86 CALM      30.12R
MARSHALL       CLEAR     42  29  60 CALM      30.11R
MOUNT PLEASANT PTCLDY    36  29  75 CALM      30.12R
MUSKEGON       CLOUDY    37  32  82 CALM      30.12R
SOUTH HAVEN    CLOUDY    37  31  78 CALM      30.11R
$$
MIZ016>042-200300-
NORTHERN LOWER MICHIGAN

CITY           SKY/WX    TMP DP  RH WIND       PRES   REMARKS
ALPENA         PTCLDY    37  29  72 NW5       30.15R WCI  33
BEAVER ISLAND  CLEAR     31  29  90 CALM      30.15S
BELLAIRE       PTCLDY    31  28  89 CALM      30.15S
CADILLAC       CLEAR     35  28  77 CALM      30.12R
CHARLEVOIX     PTCLDY    32  29  87 CALM      30.17S
FRANKFORT      CLEAR     33  29  86 CALM      30.13R
GAYLORD        PTCLDY    36  26  67 CALM      30.13R
GRAYLING       PTCLDY    32  29  86 CALM      30.14S
HARBOR SPRINGS PTCLDY    32  31  95 CALM      30.15R
HOUGHTON LAKE  CLEAR     34  27  75 CALM      30.13R
MANISTEE       CLOUDY    33  29  85 CALM      30.12R
OSCODA         CLOUDY    31  25  79 W3        30.15R
PELLSTON       CLOUDY    31  26  82 CALM      30.16R
ROGERS CITY    PTCLDY    35  28  76 W5        30.16R WCI  31
TRAVERSE CITY  CLOUDY    34  30  85 CALM      30.14R
$$
MIZ007>008-015-200300-
EASTERN UPPER MICHIGAN

CITY           SKY/WX    TMP DP  RH WIND       PRES   REMARKS
KINROSS        PTCLDY    33  28  81 NW6       30.14S WCI  28
MACKINAC ISLAN PTCLDY    34  29  82 N6        30.15R WCI  29
NEWBERRY       PTCLDY    32  29  89 N5        30.14S WCI  28
S. S. MARIE    CLOUDY    35  28  75 NW6       30.13F WCI  30
MUNISING         N/A     31  30  96 S3        30.13R
$$
MIZ004>006-011>014-085-200300-
CENTRAL UPPER MICHIGAN

CITY           SKY/WX    TMP DP  RH WIND       PRES   REMARKS
MANISTIQUE     CLOUDY    29  29  98 CALM      30.14R
ESCANABA       PTCLDY    32  29  88 CALM      30.13S
MENOMINEE      PTCLDY    37  30  75 E5        30.12R WCI  33
SAWYER-GWINN   CLEAR     32  28  86 E5        30.11S WCI  27
$$
MIZ001>003-009>011-084-200300-
WESTERN UPPER MICHIGAN

CITY           SKY/WX    TMP DP  RH WIND       PRES   REMARKS
IRON MOUNTAIN  PTCLDY    40  29  64 SE5       30.08R
HOUGHTON       CLEAR     33  28  81 E9        30.09R WCI  25
COPPER HARBOR    N/A     36  32  85 S5        30.11R WCI  32
IRONWOOD       CLOUDY    46  29  51 E8        30.00S
$$

ABBREVIATIONS USED IN REMARKS
   TC - TEMPERATURE IN CELSIUS
  WCI - WIND CHILL INDEX
   HX - HEAT INDEX
  VSB - VISIBILITY




USA.gov is the U.S. government's official web portal to all federal, state and local government web resources and services.